[[{"header":{"parameterUnit":"m.s-1","parameterCategory":1,"la1":30.2991,"la2":30.254,"lo1":-89.0895,"lo2":-89.0444,"dy":0.0017,"dx":0.0017,"nx":28,"ny":28,"refTime":"2025-12-22T09:00:00:Z","depth":0,"parameterNumber":2,"parameterNumberName":"U-component_of_WINDS"},"data":[0,0,0,0,0,0,0,0,0,0,0,0,0,0,0,0,0,0,0,0,0,0,0,0,0,0,0,0,0,0,0,0,0,0,0,0,0,0,0,0,0,0,0,0,0,0,0,0,0,0,0,0,0,0,0,0,0,0,-4.5399,-4.5402,0,-4.5687,-4.569,-4.5693,-4.5811,-4.581,-4.581,-4.5809,-4.6093,-4.6101,-4.6109,0,0,0,0,0,0,0,0,0,0,0,0,0,-4.4944,-4.4951,-4.5399,-4.5403,-4.5406,-4.5686,-4.569,-4.5694,-4.5811,-4.581,-4.581,-4.5809,-4.609,-4.61,-4.611,0,0,0,0,0,0,0,0,0,0,0,0,0,-4.5177,-4.4954,-4.5398,-4.5499,-4.5511,-4.5686,-4.569,-4.5695,-4.5811,-4.581,-4.5809,-4.5809,-4.6087,-4.6099,-4.6111,-4.6204,0,0,-4.6148,-4.6153,0,0,0,0,0,0,0,0,-4.5163,-4.5193,-4.548,-4.5492,-4.5506,-4.5712,-4.5634,-4.5865,-4.5811,-4.5697,-4.5809,-4.5808,-4.5966,-4.5988,-4.6044,-4.6218,-4.623,-4.6149,-4.6157,-4.6162,-4.6165,0,0,0,0,0,0,0,-4.5147,-4.5182,-4.5513,-4.5484,-4.55,-4.5527,-4.5559,-4.5678,-4.5833,-4.5707,-4.5716,-4.5749,-4.5973,-4.6032,-4.6051,-4.6234,-4.6149,-4.616,-4.6167,-4.6172,-4.6501,-4.6503,0,0,0,0,0,0,-4.5116,-4.5167,-4.5504,-4.5521,-4.5329,-4.5536,-4.5572,-4.5647,-4.5832,-4.5859,-4.5749,-4.5753,-4.6012,-4.6037,-4.6062,-4.6185,-4.6162,-4.6173,-4.618,-4.65,-4.6502,-4.6503,0,0,0,0,0,0,-4.5105,-4.5145,-4.5492,-4.5347,-4.5394,-4.5545,-4.5628,-4.5653,-4.5712,-4.5864,-4.5891,-4.5782,-4.6012,-4.6045,-4.617,-4.6197,-4.6179,-4.619,-4.6498,-4.65,-4.6502,-4.6431,0,0,0,0,0,0,-4.5092,-4.514,-4.5179,-4.5347,-4.5401,-4.5596,-4.563,-4.5659,-4.5734,-4.5742,-4.5902,-4.5927,-4.6014,-4.6151,-4.6182,-4.6213,-4.6199,-4.6496,-4.6499,-4.6502,-4.6431,-4.643,-4.6429,0,0,0,0,0,-4.5075,-4.5144,-4.518,-4.522,-4.5453,-4.5598,-4.5628,-4.5729,-4.5736,-4.5775,-4.5873,-4.5922,-4.6189,-4.6162,-4.6198,-4.6234,-4.6495,-4.6498,-4.6502,-4.6432,-4.6431,-4.6429,0,0,0,0,0,0,-4.497,-4.5168,-4.521,-4.5336,-4.545,-4.5618,-4.567,-4.5724,-4.5835,-4.5837,-4.5955,-4.599,-4.6105,-4.6182,-4.6149,-4.6335,-4.6346,-4.6356,-4.6281,-4.6281,-4.628,-4.6258,-4.6209,0,0,0,0,0,-4.4962,-4.5067,-4.5233,-4.5328,-4.5384,-4.5517,-4.5583,-4.5652,-4.5773,-4.5821,-4.5928,-4.6041,-4.6151,-4.622,-4.6329,-4.6444,-4.6481,-4.6486,-4.6485,-4.6483,-4.6491,-4.6559,-4.6564,-4.6514,-4.6514,-4.6514,0,0,-4.4945,-4.5067,-4.5125,-4.531,-4.5406,-4.551,-4.5556,-4.5662,-4.574,-4.5836,-4.5962,-4.6044,-4.6178,-4.6299,-4.6357,-4.6366,-4.6513,-4.6488,-4.6485,-4.6494,-4.6563,-4.6567,-4.6571,-4.6516,-4.6516,-4.6515,0,0,-4.4969,-4.5071,-4.5163,-4.526,-4.5407,-4.5496,-4.5518,-4.5679,-4.5739,-4.5868,-4.5943,-4.6035,-4.6221,-4.6315,-4.6386,-4.6449,-4.6498,-4.6481,-4.6475,-4.654,-4.6544,-4.6548,-4.6571,-4.6577,-4.6488,-4.6488,-4.6488,0,-4.4928,-4.5091,-4.5202,-4.5307,-4.5386,-4.5483,-4.5576,-4.5663,-4.5836,-4.5887,-4.5897,-4.6135,-4.6231,-4.6376,-4.6392,-4.6447,-4.6475,-4.6462,-4.6535,-4.654,-4.6545,-4.6568,-4.6577,-4.6485,-4.6485,-4.6485,-4.6486,0,-4.5035,-4.5146,-4.5202,-4.5372,-4.5458,-4.5555,-4.568,-4.5753,-4.5815,-4.5902,-4.6032,-4.6153,-4.6289,-4.6329,-4.6388,-4.6483,-4.6485,-4.6513,-4.6525,-4.6545,-4.6569,-4.6579,-4.648,-4.6481,-4.6482,-4.6483,0,0,-4.4997,-4.5231,-4.525,-4.5329,-4.55,-4.5587,-4.5689,-4.5827,-4.5887,-4.6004,-4.6092,-4.625,-4.6278,-4.6359,-4.6431,-4.6488,-4.6531,-4.651,-4.6514,-4.6509,-4.6644,-4.6621,-4.663,-4.6566,-4.6568,-4.657,-4.6633,0,-4.5043,-4.5235,-4.534,-4.5486,-4.559,-4.5685,-4.5774,-4.5887,-4.5972,-4.6071,-4.6164,-4.6274,-4.6303,-4.6353,-4.6414,-4.6513,-4.656,-4.651,-4.6647,-4.6651,-4.661,-4.6642,-4.6618,-4.6672,-4.6643,-4.6644,-4.6646,0,-4.5123,-4.5243,-4.5401,-4.5563,-4.5611,-4.5689,-4.5825,-4.5919,-4.6049,-4.6107,-4.62,-4.6272,-4.6382,-4.6388,-4.6541,-4.6505,-4.6568,-4.6625,-4.663,-4.6645,-4.6648,-4.6658,-4.6691,-4.6699,-4.6661,-4.666,-4.6659,0,-4.508,-4.5281,-4.5403,-4.5468,-4.5659,-4.5713,-4.5794,-4.5925,-4.6001,-4.6119,-4.617,-4.6297,-4.6367,-4.6463,-4.6567,-4.6562,-4.671,-4.6724,-4.676,-4.6757,-4.6786,-4.6782,-4.6828,-4.6827,-4.6826,-4.6826,-4.6826,0,-4.5121,-4.5214,-4.5387,-4.5461,-4.5568,-4.5687,-4.5789,-4.5877,-4.5993,-4.6085,-4.6173,-4.6257,-4.6389,-4.6489,-4.6571,-4.6686,-4.6716,-4.6765,-4.6785,-4.6757,-4.6751,-4.6798,-4.6797,-4.6829,-4.6828,-4.6828,-4.6827,0,-4.5091,-4.5211,-4.535,-4.5522,-4.5567,-4.5638,-4.5784,-4.5859,-4.595,-4.6065,-4.6099,-4.624,-4.6363,-4.6477,-4.6639,-4.6694,-4.681,-4.6836,-4.6766,-4.6778,-4.6807,-4.6803,-4.6885,-4.6902,-4.6888,-4.6888,-4.6888,0,-4.511,-4.5184,-4.5365,-4.5435,-4.5517,-4.5627,-4.5708,-4.5828,-4.5907,-4.6064,-4.6119,-4.6249,-4.636,-4.6551,-4.6666,-4.6791,-4.6821,-4.6842,-4.684,-4.681,-4.6822,-4.6816,-4.6824,-4.6839,-4.6838,-4.6838,-4.6838,0,-4.5129,-4.5186,-4.53,-4.5436,-4.5531,-4.5642,-4.5756,-4.5807,-4.5949,-4.6033,-4.6162,-4.6248,-4.6416,-4.6544,-4.6683,-4.6764,-4.6824,-4.6838,-4.6853,-4.6824,-4.6781,-4.6805,-4.6761,-4.6835,-4.6835,-4.6835,-4.6835,-4.6836,-4.5125,-4.5196,-4.5336,-4.5461,-4.556,-4.5666,-4.5746,-4.5848,-4.5959,-4.6107,-4.6171,-4.6301,-4.6431,-4.6625,-4.6706,-4.6809,-4.6821,-4.6842,-4.6848,-4.6851,-4.6846,-4.6766,-4.6834,-4.6834,-4.6834,-4.6835,-4.6835,0,-4.515,-4.5245,-4.5359,-4.5518,-4.5616,-4.5669,-4.5798,-4.5876,-4.5991,-4.6109,-4.6217,-4.6365,-4.649,-4.6617,-4.6749,-4.6806,-4.6837,-4.6837,-4.6833,-4.6851,-4.6827,-4.6801,-4.681,-4.681,-4.681,-4.681,-4.681,-4.681,-4.5174,-4.5299,-4.5372,-4.5546,-4.564,-4.5772,-4.5841,-4.5938,-4.6034,-4.6196,-4.6302,-4.6386,-4.6508,-4.665,-4.6766,-4.68,-4.6844,-4.6836,-4.6877,-4.6852,-4.6853,-4.6854,-4.683,-4.6845,-4.6845,-4.6894,-4.6894,-4.6895]},{"header":{"parameterUnit":"m.s-1","parameterCategory":1,"la1":30.2991,"la2":30.254,"lo1":-89.0895,"lo2":-89.0444,"dy":0.0017,"dx":0.0017,"nx":28,"ny":28,"refTime":"2025-12-22T09:00:00:Z","depth":0,"parameterNumber":3,"parameterNumberName":"V-component_of_WINDS"},"data":[0,0,0,0,0,0,0,0,0,0,0,0,0,0,0,0,0,0,0,0,0,0,0,0,0,0,0,0,0,0,0,0,0,0,0,0,0,0,0,0,0,0,0,0,0,0,0,0,0,0,0,0,0,0,0,0,0,0,2.3964,2.3963,0,2.3889,2.3888,2.3887,2.3841,2.3841,2.3841,2.3841,2.3757,2.3755,2.3753,0,0,0,0,0,0,0,0,0,0,0,0,0,2.406,2.4059,2.3964,2.3963,2.3962,2.3889,2.3888,2.3887,2.3841,2.3841,2.3841,2.3841,2.3758,2.3755,2.3753,0,0,0,0,0,0,0,0,0,0,0,0,0,2.4005,2.4058,2.3964,2.3931,2.3927,2.3889,2.3888,2.3886,2.3841,2.3841,2.3841,2.384,2.3759,2.3756,2.3753,2.374,0,0,2.3743,2.3742,0,0,0,0,0,0,0,0,2.4008,2.4001,2.3936,2.3933,2.3929,2.3874,2.3891,2.3837,2.3841,2.3874,2.3841,2.384,2.3796,2.379,2.3776,2.3736,2.3732,2.3743,2.3741,2.374,2.3739,0,0,0,0,0,0,0,2.4012,2.4004,2.3934,2.3936,2.3931,2.3917,2.3909,2.3881,2.3837,2.3871,2.3867,2.3859,2.3794,2.3779,2.3774,2.3731,2.3743,2.374,2.3738,2.3737,2.3674,2.3674,0,0,0,0,0,0,2.4022,2.4008,2.3936,2.3932,2.3969,2.3915,2.3906,2.3892,2.3837,2.3829,2.386,2.3858,2.3784,2.3777,2.3771,2.3751,2.374,2.3737,2.3735,2.3674,2.3674,2.3674,0,0,0,0,0,0,2.4024,2.4016,2.3939,2.3969,2.3958,2.3914,2.3898,2.3891,2.3876,2.3829,2.382,2.3854,2.3784,2.3775,2.3748,2.3748,2.3736,2.3733,2.3673,2.3674,2.3674,2.3713,0,0,0,0,0,0,2.4027,2.4017,2.4014,2.3969,2.3957,2.392,2.3898,2.3889,2.3872,2.3868,2.3821,2.3813,2.3783,2.3753,2.3745,2.3743,2.373,2.3673,2.3673,2.3674,2.3711,2.3714,2.3717,0,0,0,0,0,2.4031,2.4027,2.4014,2.4006,2.3952,2.3921,2.3913,2.3881,2.3872,2.3867,2.3836,2.3814,2.3749,2.375,2.3741,2.3738,2.3673,2.3673,2.3674,2.371,2.3714,2.3717,0,0,0,0,0,0,2.4072,2.4021,2.4006,2.3988,2.3959,2.3913,2.3906,2.3886,2.3858,2.3855,2.3814,2.3804,2.378,2.3756,2.3759,2.3722,2.3708,2.3707,2.3739,2.3742,2.3745,2.3751,2.3728,0,0,0,0,0,2.4079,2.406,2.4015,2.4004,2.399,2.3951,2.3936,2.3913,2.3881,2.3868,2.3835,2.3803,2.3774,2.3756,2.3728,2.3707,2.3694,2.37,2.3703,2.3705,2.3705,2.3689,2.3691,2.3675,2.3675,2.3675,0,0,2.4093,2.4063,2.4053,2.4011,2.3986,2.3965,2.3941,2.392,2.3903,2.3864,2.3837,2.3811,2.3771,2.3747,2.3735,2.3726,2.3706,2.3706,2.3708,2.3706,2.369,2.3691,2.3693,2.3675,2.3675,2.3675,0,0,2.4109,2.4085,2.4072,2.4047,2.401,2.3983,2.398,2.3936,2.3919,2.3891,2.3861,2.3838,2.3791,2.3763,2.3743,2.3745,2.3723,2.3737,2.3751,2.3737,2.3738,2.3739,2.3738,2.3739,2.3736,2.3736,2.3736,0,2.4131,2.41,2.4067,2.4048,2.4029,2.3994,2.3979,2.3955,2.391,2.3897,2.3888,2.3827,2.3798,2.3766,2.3766,2.3751,2.3744,2.3743,2.3741,2.3742,2.3742,2.3741,2.3741,2.3738,2.3738,2.3737,2.3737,0,2.4128,2.4107,2.4101,2.406,2.404,2.4023,2.3984,2.3967,2.3945,2.3919,2.3889,2.3853,2.3815,2.3806,2.3784,2.3769,2.3765,2.3749,2.3735,2.3746,2.3744,2.3743,2.3741,2.374,2.3739,2.3739,0,0,2.417,2.4109,2.4108,2.4088,2.4043,2.4024,2.4003,2.3969,2.3955,2.3923,2.3903,2.3863,2.3848,2.3825,2.3799,2.3786,2.3788,2.3771,2.377,2.3775,2.3767,2.378,2.378,2.3773,2.3772,2.3772,2.377,0,2.4178,2.4143,2.4112,2.4087,2.4065,2.403,2.4011,2.398,2.3954,2.3929,2.3898,2.387,2.3853,2.3839,2.3824,2.3791,2.3786,2.3791,2.3751,2.375,2.3763,2.3779,2.3793,2.3793,2.3769,2.3769,2.3769,0,2.4185,2.4157,2.4131,2.4086,2.4075,2.406,2.4024,2.4002,2.3964,2.3946,2.3919,2.3892,2.3865,2.3852,2.3813,2.3817,2.3798,2.3779,2.3778,2.3774,2.3761,2.3775,2.3793,2.3793,2.3768,2.3768,2.3768,0,2.4217,2.4172,2.415,2.4134,2.4082,2.4071,2.4048,2.4011,2.3991,2.3958,2.3944,2.3908,2.3889,2.386,2.3822,2.3816,2.3786,2.377,2.3767,2.3768,2.3763,2.3764,2.3779,2.3751,2.3751,2.3751,2.3751,0,2.4231,2.4216,2.4164,2.4151,2.4131,2.4093,2.4074,2.4048,2.4014,2.3992,2.3958,2.3938,2.3889,2.3862,2.3831,2.3802,2.3794,2.3776,2.3768,2.3779,2.3781,2.3767,2.3766,2.3751,2.3751,2.3751,2.3751,0,2.4265,2.423,2.4203,2.4155,2.4143,2.4131,2.4088,2.4072,2.4042,2.4015,2.4006,2.396,2.3925,2.3885,2.3837,2.3816,2.379,2.3778,2.3803,2.3799,2.3798,2.3799,2.3803,2.3801,2.3776,2.3777,2.3777,0,2.4276,2.4264,2.4215,2.4199,2.4178,2.4152,2.4132,2.4092,2.4072,2.4026,2.4015,2.3978,2.3948,2.3894,2.3854,2.3816,2.3803,2.3807,2.3797,2.3808,2.3802,2.3803,2.3801,2.381,2.3811,2.3811,2.3811,0,2.43,2.4282,2.4256,2.4223,2.42,2.4172,2.4141,2.4129,2.4082,2.406,2.4026,2.4002,2.3953,2.3917,2.3874,2.3846,2.382,2.3814,2.3812,2.3823,2.3838,2.3829,2.3811,2.3815,2.3815,2.3814,2.3814,2.3814,2.4322,2.4309,2.4273,2.4243,2.4216,2.4188,2.417,2.4138,2.411,2.4069,2.4046,2.4012,2.397,2.391,2.3883,2.3853,2.3844,2.384,2.3839,2.3839,2.3842,2.3843,2.3845,2.3845,2.3845,2.3844,2.3844,0,2.4344,2.4318,2.4292,2.4251,2.4227,2.4206,2.417,2.4151,2.4122,2.4087,2.4057,2.4016,2.3979,2.3936,2.3895,2.388,2.3866,2.387,2.3871,2.3865,2.3853,2.3859,2.3882,2.3882,2.3882,2.3882,2.3882,2.3882,2.4353,2.4329,2.4307,2.4268,2.4241,2.4209,2.419,2.4163,2.4134,2.4091,2.4061,2.4033,2.3993,2.3949,2.3914,2.3901,2.3887,2.3895,2.3879,2.3869,2.3866,2.3863,2.3869,2.3893,2.3893,2.3893,2.3893,2.3893]}]]